�N����,����,�g�[���i�L�b�`���j���x,�g�[�����x,��g�[���i���ʏ��j���x,����
 2004/01/01, 0:00,16.2,49,9.8,11.7
 2004/01/01, 0:15,16.1,50,9.6,11.7
 2004/01/01, 0:30,16.1,48,9.5,11.7
 2004/01/01, 0:45,16,48,9.6,10.8
 2004/01/01, 1:00,15.8,48,9.5,10.8
 2004/01/01, 1:15,16,47,9.4,10.9
 2004/01/01, 1:30,15.7,47,9.3,10.9
 2004/01/01, 1:45,15.8,47,9.1,11
 2004/01/01, 2:00,15.6,47,9,11.1
 2004/01/01, 2:15,15.8,47,9,11.2
 2004/01/01, 2:30,15.6,47,8.8,11.2
 2004/01/01, 2:45,14.5,49,8.8,10
 2004/01/01, 3:00,14,49,8.6,10.1
 2004/01/01, 3:15,13.7,49,8.7,10.1
 2004/01/01, 3:30,13.5,49,8.7,10.2
 2004/01/01, 3:45,13.3,49,8.7,10.2
 2004/01/01, 4:00,13.2,49,8.8,10.3
 2004/01/01, 4:15,13.1,49,9,10.3
 2004/01/01, 4:30,12.9,49,9,10.4
 2004/01/01, 4:45,12.8,49,8.8,10.4
 2004/01/01, 5:00,12.6,49,8.8,10.5
 2004/01/01, 5:15,12.6,49,8.6,10.5
 2004/01/01, 5:30,12.4,49,8.7,10.6
 2004/01/01, 5:45,12.3,49,8.7,10.6
 2004/01/01, 6:00,12.2,49,8.6,10.7
 2004/01/01, 6:15,12.1,49,8.6,10.7
 2004/01/01, 6:30,12.2,49,8.6,10.7
 2004/01/01, 6:45,12,49,8.5,10.7
 2004/01/01, 7:00,11.9,49,8.5,10.8
 2004/01/01, 7:15,11.9,48,8.4,10.8
 2004/01/01, 7:30,12.1,48,8.9,9.4
 2004/01/01, 7:45,20.7,37,9.1,9.5
 2004/01/01, 8:00,19.3,38,9.3,9
 2004/01/01, 8:15,21.4,33,9.9,9.1
 2004/01/01, 8:30,19.5,38,10.8,9.2
 2004/01/01, 8:45,18.4,42,11,9.2
 2004/01/01, 9:00,18.6,42,10.9,9.3
 2004/01/01, 9:15,18.9,41,11.2,9.4
 2004/01/01, 9:30,18.4,41,11.3,8.6
 2004/01/01, 9:45,17.1,43,11.4,8.7
 2004/01/01,10:00,16.6,44,11.4,8.8
 2004/01/01,10:15,16.3,44,11.7,9
 2004/01/01,10:30,16.1,45,11.9,9.2
 2004/01/01,10:45,16,45,12,9.4
 2004/01/01,11:00,15.8,44,12,9.6
 2004/01/01,11:15,15.8,44,12.1,9.8
 2004/01/01,11:30,15.7,44,12.3,10
 2004/01/01,11:45,15.4,45,12.4,10.2
 2004/01/01,12:00,15.5,45,12.6,10.4
 2004/01/01,12:15,15.6,45,12.8,10.6
 2004/01/01,12:30,20.9,34,13,9.5
 2004/01/01,12:45,22.4,31,13.2,9.5
 2004/01/01,13:00,21,35,13.4,9.6
 2004/01/01,13:15,20.1,38,13.4,9.7
 2004/01/01,13:30,19.5,40,13.9,9.6
 2004/01/01,13:45,19.5,40,14.2,9.6
 2004/01/01,14:00,19.5,41,14.5,9.7
 2004/01/01,14:15,19.7,41,14.9,9.8
 2004/01/01,14:30,20,41,15.2,10
 2004/01/01,14:45,19.6,40,15.3,10.1
 2004/01/01,15:00,19.4,42,15.1,10.3
 2004/01/01,15:15,19.2,42,14.9,10.5
 2004/01/01,15:30,19.3,42,15.1,10.8
 2004/01/01,15:45,19.4,42,15.1,11
 2004/01/01,16:00,19.3,43,15.2,11.1
 2004/01/01,16:15,19.2,43,15.2,11.3
 2004/01/01,16:30,19.1,44,14.7,11.5
 2004/01/01,16:45,19,44,14.1,11.1
 2004/01/01,17:00,18.9,44,13.4,11.1
 2004/01/01,17:15,18.7,44,12.9,11.2
 2004/01/01,17:30,18.7,44,12.6,11.2
 2004/01/01,17:45,17.9,45,12.4,11.3
 2004/01/01,18:00,18.6,44,12.2,11.4
 2004/01/01,18:15,18.4,44,12.2,11.5
 2004/01/01,18:30,18.4,44,12,11.6
 2004/01/01,18:45,18.3,44,11.9,11.7
 2004/01/01,19:00,18.3,44,11.9,11.8
 2004/01/01,19:15,18.2,44,11.7,11.2
 2004/01/01,19:30,18.7,44,11.7,11.2
 2004/01/01,19:45,18.8,44,11.7,11.3
 2004/01/01,20:00,18.8,43,11.6,11.4
 2004/01/01,20:15,18.3,44,11.5,11.5
 2004/01/01,20:30,18,44,12.1,11.6
 2004/01/01,20:45,17.9,44,13.6,11.7
 2004/01/01,21:00,18.2,45,15.1,11.7
 2004/01/01,21:15,18.1,45,14.7,11.8
 2004/01/01,21:30,18,46,14.5,11.9
 2004/01/01,21:45,17.9,46,14.1,12
 2004/01/01,22:00,17.9,46,13.6,12.1
 2004/01/01,22:15,17.8,46,13.1,12.1
 2004/01/01,22:30,17.8,45,12.6,12.2
 2004/01/01,22:45,17.3,46,12.4,12.3
 2004/01/01,23:00,16.8,47,11.9,12.4
 2004/01/01,23:15,16.5,46,11.7,12.4
 2004/01/01,23:30,16.2,47,11.7,11.8
 2004/01/01,23:45,16,46,12.1,11.9
 2004/01/02, 0:00,15.8,46,11.9,11.9
 2004/01/02, 0:15,15.5,47,11.7,12
 2004/01/02, 0:30,15.4,47,11.6,12
 2004/01/02, 0:45,15.3,47,11.5,12.1
 2004/01/02, 1:00,15.1,46,11.5,12.2
 2004/01/02, 1:15,14.9,47,11.3,12.2
 2004/01/02, 1:30,14.8,47,11,12.3
 2004/01/02, 1:45,14.6,47,10.9,12.3
 2004/01/02, 2:00,14.5,47,10.7,12.4
 2004/01/02, 2:15,14.3,47,10.6,12.4
 2004/01/02, 2:30,14.2,47,10.5,12.5
 2004/01/02, 2:45,14.1,48,10.2,12.5
 2004/01/02, 3:00,14.1,48,9.9,12.6
 2004/01/02, 3:15,13.9,48,9.8,12.6
 2004/01/02, 3:30,13.8,48,9.6,12.6
 2004/01/02, 3:45,13.6,48,9.3,12.7
 2004/01/02, 4:00,13.6,47,9,12.7
 2004/01/02, 4:15,13.4,48,9,12.7
 2004/01/02, 4:30,13.2,48,8.9,12.8
 2004/01/02, 4:45,13.1,48,8.9,12.8
 2004/01/02, 5:00,12.9,48,8.9,12.8
 2004/01/02, 5:15,12.9,48,9,12.8
 2004/01/02, 5:30,12.7,48,9.2,12.9
 2004/01/02, 5:45,12.7,48,9,12.9
 2004/01/02, 6:00,12.6,48,8.7,12.9
 2004/01/02, 6:15,12.5,48,8.7,12.9
 2004/01/02, 6:30,12.5,48,8.5,12.9
 2004/01/02, 6:45,12.4,48,8.3,12.9
 2004/01/02, 7:00,12.3,48,8.3,12.9
 2004/01/02, 7:15,12.1,48,8.2,12.9
 2004/01/02, 7:30,12,48,8.1,12.9
 2004/01/02, 7:45,12,48,8.2,12.9
 2004/01/02, 8:00,12,48,8.1,12.9
 2004/01/02, 8:15,13.3,47,8.8,12.9
 2004/01/02, 8:30,14.2,46,9,10.8
 2004/01/02, 8:45,15.2,46,9.3,10.9
 2004/01/02, 9:00,19.5,37,9.8,10.9
 2004/01/02, 9:15,20.1,35,10.1,10.9
 2004/01/02, 9:30,19.1,37,10.3,11
 2004/01/02, 9:45,18.3,40,10.8,11
 2004/01/02,10:00,18.1,41,11.3,11.1
 2004/01/02,10:15,18.2,42,11.5,11.1
 2004/01/02,10:30,23.1,30,11.6,10.2
 2004/01/02,10:45,21.1,35,12.1,10.3
 2004/01/02,11:00,19.7,36,11.9,10.3
 2004/01/02,11:15,18.7,36,12,10.1
 2004/01/02,11:30,17.2,38,12,10.1
 2004/01/02,11:45,16.9,40,12,10.2
 2004/01/02,12:00,16.5,41,12.2,10.2
 2004/01/02,12:15,16.2,42,12.5,10.3
 2004/01/02,12:30,16.2,43,12.8,10.4
 2004/01/02,12:45,16.1,44,12.7,10.4
 2004/01/02,13:00,21.6,34,13.1,10.5
 2004/01/02,13:15,19.9,35,12.9,10.6
 2004/01/02,13:30,18.4,39,13.2,10.6
 2004/01/02,13:45,17.8,40,13.3,10.7
 2004/01/02,14:00,17.2,41,13.3,10.7
 2004/01/02,14:15,17.2,43,13.6,10.7
 2004/01/02,14:30,17.4,43,13.4,10.7
 2004/01/02,14:45,17.2,43,13.3,10.8
 2004/01/02,15:00,16.5,45,13.5,10.9
 2004/01/02,15:15,16.4,46,13.3,10.9
 2004/01/02,15:30,16.3,46,13.2,11
 2004/01/02,15:45,16.3,47,13,11.1
 2004/01/02,16:00,16.2,46,12.6,11.1
 2004/01/02,16:15,16.2,46,12.5,11.2
 2004/01/02,16:30,16.1,46,12.2,11.3
 2004/01/02,16:45,16,46,12.1,11.3
 2004/01/02,17:00,16,47,12.2,11.4
 2004/01/02,17:15,15.9,47,12.2,11.5
 2004/01/02,17:30,15.8,46,12.1,11.6
 2004/01/02,17:45,15.6,46,12.1,11.2
 2004/01/02,18:00,15.4,47,12,11.3
 2004/01/02,18:15,15.2,47,11.9,11.3
 2004/01/02,18:30,15.2,47,11.8,11.4
 2004/01/02,18:45,15.1,47,11.6,11.5
 2004/01/02,19:00,14.9,47,11.4,11.5
 2004/01/02,19:15,14.8,47,11.3,11.6
 2004/01/02,19:30,14.6,47,11.3,11.7
 2004/01/02,19:45,14.5,47,11.1,11.7
 2004/01/02,20:00,14.4,47,10.9,11.8
 2004/01/02,20:15,14.3,46,10.8,11.8
 2004/01/02,20:30,14.2,46,10.6,11.9
 2004/01/02,20:45,14,46,10.6,11.9
 2004/01/02,21:00,16.1,44,12,11.2
 2004/01/02,21:15,16.1,44,12.4,11.3
 2004/01/02,21:30,16.5,45,16.2,11.3
 2004/01/02,21:45,16.6,45,16.3,11.4
 2004/01/02,22:00,16.7,46,14.5,11.4
 2004/01/02,22:15,16.6,47,13.8,11.5
 2004/01/02,22:30,16.9,47,13.4,11.6
 2004/01/02,22:45,16.8,48,13.1,11.6
 2004/01/02,23:00,16.9,47,12.6,11.7
 2004/01/02,23:15,16.9,47,12.3,11.7
 2004/01/02,23:30,16.9,46,11.8,11.8
 2004/01/02,23:45,16.8,46,12,11.8
 2004/01/03, 0:00,16.7,47,11.7,11.9
 2004/01/03, 0:15,16.6,47,11.3,12
 2004/01/03, 0:30,16.5,47,11.3,12
 2004/01/03, 0:45,16.5,47,11.3,12.1
 2004/01/03, 1:00,16.4,47,11.2,12.1
 2004/01/03, 1:15,16.3,47,10.9,12.2
 2004/01/03, 1:30,16.3,47,10.7,12.2
 2004/01/03, 1:45,15.6,47,10.7,11.2
 2004/01/03, 2:00,15.1,48,10.5,11.2
 2004/01/03, 2:15,14.8,48,10.4,11.3
 2004/01/03, 2:30,14.6,48,10.3,11.3
 2004/01/03, 2:45,14.5,48,10.3,11.3
 2004/01/03, 3:00,14.3,48,10.1,11.4
 2004/01/03, 3:15,14.1,48,9.9,11.4
 2004/01/03, 3:30,13.9,47,9.6,11.5
 2004/01/03, 3:45,13.7,46,9.4,11.5
 2004/01/03, 4:00,13.5,45,9.4,11.6
 2004/01/03, 4:15,13.5,45,9.3,11.6
 2004/01/03, 4:30,13.2,46,9.4,11.6
 2004/01/03, 4:45,13.1,45,9.3,11.7
 2004/01/03, 5:00,13,45,9.2,11.7
 2004/01/03, 5:15,12.9,45,9.3,11.7
 2004/01/03, 5:30,12.8,45,9.3,11.8
 2004/01/03, 5:45,12.7,45,9.1,11.8
 2004/01/03, 6:00,12.6,45,9.1,11.8
 2004/01/03, 6:15,12.5,45,9.1,11.8
 2004/01/03, 6:30,12.4,45,9,11.9
 2004/01/03, 6:45,12.5,45,9,11.9
 2004/01/03, 7:00,12.3,45,9,11.9
 2004/01/03, 7:15,13.2,45,9.1,11.9
 2004/01/03, 7:30,14.1,44,9.7,11.9
 2004/01/03, 7:45,14.6,43,9.6,12
 2004/01/03, 8:00,16.3,42,10,12
 2004/01/03, 8:15,16.8,41,9.9,10.6
 2004/01/03, 8:30,22.2,28,10.1,10.5
 2004/01/03, 8:45,20.4,33,10.2,10.6
 2004/01/03, 9:00,20,34,10.4,10.6
 2004/01/03, 9:15,19.5,35,10.7,10.6
 2004/01/03, 9:30,17.8,35,11.2,10.7
 2004/01/03, 9:45,16.7,36,11.5,10.7
 2004/01/03,10:00,16.4,36,11.5,10.8
 2004/01/03,10:15,16.5,37,11.3,9.5
 2004/01/03,10:30,16.3,36,11.7,9.6
 2004/01/03,10:45,17.1,34,11.7,9.6
 2004/01/03,11:00,17,33,11.8,9.7
 2004/01/03,11:15,17.3,34,12.4,9.8
 2004/01/03,11:30,17.4,35,12.7,9.9
 2004/01/03,11:45,17.1,33,13,9.9
 2004/01/03,12:00,16.6,34,12.9,9.9
 2004/01/03,12:15,16.5,34,13.8,10
 2004/01/03,12:30,16.3,35,14.1,10.1
 2004/01/03,12:45,16.2,36,14.4,10.2
 2004/01/03,13:00,16.1,36,14.2,10.3
 2004/01/03,13:15,15.9,37,14.1,10.4
 2004/01/03,13:30,16,39,14.7,10.5
 2004/01/03,13:45,16.1,37,14.2,10.5
 2004/01/03,14:00,15.9,37,14.3,10.6
 2004/01/03,14:15,15.7,37,13.9,10.7
 2004/01/03,14:30,17,36,13.8,10.8
 2004/01/03,14:45,16.9,37,14.3,10.9
 2004/01/03,15:00,17,37,15,11
 2004/01/03,15:15,17.3,37,15.3,11.1
 2004/01/03,15:30,17.5,37,15.5,10.6
 2004/01/03,15:45,17.4,37,15.6,10.7
 2004/01/03,16:00,17.2,37,15.3,10.8
 2004/01/03,16:15,17.3,37,15.3,11
 2004/01/03,16:30,17.1,37,14.7,10.8
 2004/01/03,16:45,17.1,38,14.1,10.8
 2004/01/03,17:00,17.2,39,13.5,10.9
 2004/01/03,17:15,17.2,40,13,11.1
 2004/01/03,17:30,16.9,40,12.8,11.2
 2004/01/03,17:45,16.6,41,12.5,11.4
 2004/01/03,18:00,16.5,42,12.2,11.6
 2004/01/03,18:15,16.3,42,12,11.7
 2004/01/03,18:30,16.3,42,12.9,11.9
 2004/01/03,18:45,16.2,43,13.6,12.1
 2004/01/03,19:00,16.2,43,16.5,12.3
 2004/01/03,19:15,16.1,42,14.8,12.5
 2004/01/03,19:30,17.1,43,14.2,12.6
 2004/01/03,19:45,22.2,33,13.8,12.8
 2004/01/03,20:00,19.8,39,13.3,12.9
 2004/01/03,20:15,19.2,41,12.9,13
 2004/01/03,20:30,19.2,41,12.7,13.2
 2004/01/03,20:45,19.2,41,12.5,13.3
 2004/01/03,21:00,19.3,41,12.4,13.4
 2004/01/03,21:15,19.2,40,12.2,13.5
 2004/01/03,21:30,19.2,40,12.1,13.6
 2004/01/03,21:45,19.6,40,11.6,13.7
 2004/01/03,22:00,19.7,39,12,13.8
 2004/01/03,22:15,19.3,39,11.5,13.9
 2004/01/03,22:30,18.4,41,11.3,12.1
 2004/01/03,22:45,18.2,41,11.3,12.1
 2004/01/03,23:00,17.9,41,11,12.2
 2004/01/03,23:15,17.8,41,11,12.2
 2004/01/03,23:30,17.6,41,11.2,12.3
 2004/01/03,23:45,16.7,42,10.9,12.4
 2004/01/04, 0:00,16.3,42,10.8,12.5
 2004/01/04, 0:15,16,42,10.6,12.6
 2004/01/04, 0:30,15.6,42,10.4,12.7
 2004/01/04, 0:45,15.4,41,10.3,12.7
 2004/01/04, 1:00,15.1,41,10.2,11.2
 2004/01/04, 1:15,14.9,41,10.1,11.3
 2004/01/04, 1:30,14.7,42,10.1,11.4
 2004/01/04, 1:45,14.5,42,10.1,11.4
 2004/01/04, 2:00,14.3,42,10,11.5
 2004/01/04, 2:15,14.2,42,9.9,11.6
 2004/01/04, 2:30,14,42,9.9,11.7
 2004/01/04, 2:45,13.9,43,9.9,11.8
 2004/01/04, 3:00,13.7,43,9.6,11.9
 2004/01/04, 3:15,13.6,43,9.5,11.9
 2004/01/04, 3:30,13.6,43,9.4,12
 2004/01/04, 3:45,13.4,43,9.4,12.1
 2004/01/04, 4:00,13.3,43,9.3,12.2
 2004/01/04, 4:15,13.2,43,9.2,12.2
 2004/01/04, 4:30,13.2,43,9.3,12.3
 2004/01/04, 4:45,13,44,9.3,12.3
 2004/01/04, 5:00,12.9,44,9.3,12.4
 2004/01/04, 5:15,12.8,44,9.3,12.4
 2004/01/04, 5:30,12.7,44,9.2,12.5
 2004/01/04, 5:45,12.6,45,9,12.5
 2004/01/04, 6:00,12.5,45,8.9,12.5
 2004/01/04, 6:15,12.4,45,8.8,12.5
 2004/01/04, 6:30,12.4,45,8.7,12.6
 2004/01/04, 6:45,12.9,45,8.7,12.6
 2004/01/04, 7:00,14.3,43,9.2,12.6
 2004/01/04, 7:15,15.1,44,8.9,12.6
 2004/01/04, 7:30,17.8,41,9.6,10.5
 2004/01/04, 7:45,18.3,41,9.6,9.5
 2004/01/04, 8:00,18.2,41,9.9,9.6
 2004/01/04, 8:15,17.7,41,10.1,9.6
 2004/01/04, 8:30,17.1,42,10.1,9.7
 2004/01/04, 8:45,16.9,41,10.6,9.9
 2004/01/04, 9:00,16.2,42,10.8,9.9
 2004/01/04, 9:15,15.8,43,10.9,10
 2004/01/04, 9:30,15.6,43,11,10.1
 2004/01/04, 9:45,15.5,43,11.3,10.1
 2004/01/04,10:00,15.4,39,11.5,9.9
 2004/01/04,10:15,14.3,39,11,10
 2004/01/04,10:30,13.6,39,11.1,10.1
 2004/01/04,10:45,14,40,11.2,10.1
 2004/01/04,11:00,14.7,40,11.7,9.9
 2004/01/04,11:15,14.6,41,11.4,10
 2004/01/04,11:30,14.7,41,11.4,10
 2004/01/04,11:45,15.9,41,11.4,10.1
 2004/01/04,12:00,19.5,33,11.7,10.2
 2004/01/04,12:15,19.3,35,12.2,10.2
 2004/01/04,12:30,18.9,36,12.5,10.3
 2004/01/04,12:45,18.2,36,12.3,10.4
 2004/01/04,13:00,16.9,37,12.2,10.4
 2004/01/04,13:15,16.3,36,12.1,10.4
 2004/01/04,13:30,16,37,12.1,10.5
 2004/01/04,13:45,15.9,37,12,10.6
 2004/01/04,14:00,15.5,37,11.8,10.7
 2004/01/04,14:15,15.4,37,11.9,10.8
 2004/01/04,14:30,15.2,37,11.9,10.9
 2004/01/04,14:45,15.1,38,11.9,10.9
 2004/01/04,15:00,15,38,11.7,11
 2004/01/04,15:15,14.9,38,11.7,11.1
 2004/01/04,15:30,14.8,39,11.7,11.2
 2004/01/04,15:45,14.7,38,11.6,11.2
 2004/01/04,16:00,14.6,39,11.4,11.3
 2004/01/04,16:15,14.6,39,11.4,11.4
 2004/01/04,16:30,14.7,40,11.5,11.4
 2004/01/04,16:45,14.7,40,11.5,11.5
 2004/01/04,17:00,14.8,41,11.2,10.7
 2004/01/04,17:15,16.7,40,10.8,10.8
 2004/01/04,17:30,16.7,41,10.8,10.8
 2004/01/04,17:45,16.8,42,10.6,10.9
 2004/01/04,18:00,16.8,41,10.5,11
 2004/01/04,18:15,17.4,41,10.4,11
 2004/01/04,18:30,18.4,40,10.5,11.1
 2004/01/04,18:45,18.6,40,10.4,11.2
 2004/01/04,19:00,18.8,40,10.5,11.2
 2004/01/04,19:15,18.1,39,10.4,11.3
 2004/01/04,19:30,17.9,40,10.3,11.4
 2004/01/04,19:45,17.8,40,10.5,10.2
 2004/01/04,20:00,17.6,40,11.5,10.3
 2004/01/04,20:15,17.8,41,15.6,10.4
 2004/01/04,20:30,17.9,41,14.3,10.5
 2004/01/04,20:45,18,41,12.9,10.6
 2004/01/04,21:00,17.9,41,12.6,10.7
 2004/01/04,21:15,17.9,41,12.4,10.9
 2004/01/04,21:30,17.9,41,12.1,11
 2004/01/04,21:45,18.5,40,11.6,11
 2004/01/04,22:00,17.6,42,11.3,11.1
 2004/01/04,22:15,17.2,42,11,11.2
 2004/01/04,22:30,17.1,42,11.1,11.3
 2004/01/04,22:45,16.9,43,10.7,11.4
 2004/01/04,23:00,16.8,43,10.5,11.5
 2004/01/04,23:15,16.6,44,10.4,11.7
 2004/01/04,23:30,16.2,43,10.2,10.6
 2004/01/04,23:45,15.5,45,10.1,10.7
 2004/01/05, 0:00,15.2,45,9.9,9.8
 2004/01/05, 0:15,14.9,45,9.8,9.9
 2004/01/05, 0:30,14.6,45,9.6,9.9
 2004/01/05, 0:45,14.5,45,9.5,10
 2004/01/05, 1:00,14.2,45,9.2,10.1
 2004/01/05, 1:15,14,46,9.1,10.1
 2004/01/05, 1:30,13.8,45,8.9,10.2
 2004/01/05, 1:45,13.7,45,8.7,10.3
 2004/01/05, 2:00,13.5,45,8.7,10.3
 2004/01/05, 2:15,13.3,45,8.6,10.4
 2004/01/05, 2:30,13.3,45,8.5,10.5
 2004/01/05, 2:45,13.1,45,8.5,10.5
 2004/01/05, 3:00,12.9,46,8.4,10.6
 2004/01/05, 3:15,12.7,46,8.4,10.6
 2004/01/05, 3:30,12.8,46,8.3,10.7
 2004/01/05, 3:45,12.6,46,8.1,10.7
 2004/01/05, 4:00,12.4,46,8.1,10.8
 2004/01/05, 4:15,12.4,46,7.9,10.8
 2004/01/05, 4:30,12.3,46,7.9,10.8
 2004/01/05, 4:45,12.1,46,7.8,10.9
 2004/01/05, 5:00,12.1,46,7.8,10.9
 2004/01/05, 5:15,12,47,7.7,10.9
 2004/01/05, 5:30,12,47,7.6,11
 2004/01/05, 5:45,11.8,47,7.6,11
 2004/01/05, 6:00,11.8,47,7.5,10.2
 2004/01/05, 6:15,12.1,47,7.3,9.6
 2004/01/05, 6:30,13.2,47,7.5,9.7
 2004/01/05, 6:45,15.4,44,7.9,9.7
 2004/01/05, 7:00,16.5,43,7.9,8.9
 2004/01/05, 7:15,17.3,44,8.1,8.9
 2004/01/05, 7:30,18.1,42,8.1,9
 2004/01/05, 7:45,18.5,42,8.7,9.1
 2004/01/05, 8:00,17.3,42,8.8,9.2
 2004/01/05, 8:15,16.6,44,8.7,9.3
 2004/01/05, 8:30,17.2,42,8.8,9.5
 2004/01/05, 8:45,16.2,43,9.3,9.6
 2004/01/05, 9:00,15.8,44,9.6,9.8
 2004/01/05, 9:15,15.2,43,9.6,10
 2004/01/05, 9:30,14.9,43,9.7,10.1
 2004/01/05, 9:45,14.8,42,9.6,10.3
 2004/01/05,10:00,14.3,42,9.7,10.5
 2004/01/05,10:15,13.9,43,10.3,10.7
 2004/01/05,10:30,13.5,45,10.1,10.9
 2004/01/05,10:45,13.8,44,10.8,9.8
 2004/01/05,11:00,13.7,44,10.9,9.8
 2004/01/05,11:15,13.5,44,10.8,9.9
 2004/01/05,11:30,13.4,44,10.9,10
 2004/01/05,11:45,13.2,44,10.8,9.3
 2004/01/05,12:00,15.2,44,11.2,9.4
 2004/01/05,12:15,16.4,40,11.2,9.5
 2004/01/05,12:30,16.9,38,11.4,9.7
 2004/01/05,12:45,16.9,39,11.2,9.8
 2004/01/05,13:00,17,39,11.3,10
 2004/01/05,13:15,17.7,39,11.3,10.3
 2004/01/05,13:30,18.2,37,11.4,10.5
 2004/01/05,13:45,17.8,36,12.7,10.8
 2004/01/05,14:00,17.4,37,13,11
 2004/01/05,14:15,17.1,36,12.7,11.2
 2004/01/05,14:30,16.9,36,12.5,11.4
 2004/01/05,14:45,16.9,35,12.4,10.3
 2004/01/05,15:00,16,37,12.7,10.3
 2004/01/05,15:15,15.5,37,12.7,10.4
 2004/01/05,15:30,15.4,37,12.7,10.4
 2004/01/05,15:45,15.2,37,12.8,10.6
 2004/01/05,16:00,15,38,12.8,10.7
 2004/01/05,16:15,14.8,38,12.8,10.8
 2004/01/05,16:30,14.8,38,12.5,10.9
 2004/01/05,16:45,14.8,39,12.1,11
 2004/01/05,17:00,14.7,40,11.8,11.1
 2004/01/05,17:15,14.7,40,11.7,11.3
 2004/01/05,17:30,14.8,41,11.5,11.4
 2004/01/05,17:45,14.6,41,11.8,11.5
 2004/01/05,18:00,14.7,41,14,11.6
 2004/01/05,18:15,14.6,41,12.9,11.7
 2004/01/05,18:30,14.6,42,12.6,11.8
 2004/01/05,18:45,16.9,43,12.7,11.9
 2004/01/05,19:00,17.5,41,12.3,12
 2004/01/05,19:15,18.7,43,12.1,12.1
 2004/01/05,19:30,19.1,41,11.9,12.2
 2004/01/05,19:45,19,40,11.9,12.3
 2004/01/05,20:00,19.1,40,11.9,12.4
 2004/01/05,20:15,19.5,39,11.9,12.5
 2004/01/05,20:30,19.5,39,12.1,11.4
 2004/01/05,20:45,19.5,40,12.8,11.5
 2004/01/05,21:00,19.7,39,12.3,11.5
 2004/01/05,21:15,18.1,41,12,11.6
 2004/01/05,21:30,17.1,42,11.6,11.7
 2004/01/05,21:45,16.7,42,11.2,11.7
 2004/01/05,22:00,16.2,43,11.2,11.8
 2004/01/05,22:15,15.8,43,10.8,11.9
 2004/01/05,22:30,15.6,45,10.6,11.2
 2004/01/05,22:45,15.4,44,10.6,11.1
 2004/01/05,23:00,15,45,10.3,11.1
 2004/01/05,23:15,14.8,45,10.4,11.2
 2004/01/05,23:30,14.6,45,10.4,9.8
 2004/01/05,23:45,14.5,45,10.2,9.9
 2004/01/06, 0:00,14.3,45,10,10.1
 2004/01/06, 0:15,14.1,44,9.8,10.2
 2004/01/06, 0:30,13.9,45,9.6,10.4
 2004/01/06, 0:45,13.7,45,9.4,10.6
 2004/01/06, 1:00,13.7,44,9.3,10.7
 2004/01/06, 1:15,13.4,45,9.3,10.9
 2004/01/06, 1:30,13.3,45,9.1,11
 2004/01/06, 1:45,13.2,45,9,11.1
 2004/01/06, 2:00,13.1,45,9,11.2
 2004/01/06, 2:15,12.9,45,8.8,11.3
 2004/01/06, 2:30,12.8,44,8.7,9.8
 2004/01/06, 2:45,12.8,45,8.4,9.8
 2004/01/06, 3:00,12.6,45,8.3,9.9
 2004/01/06, 3:15,12.5,46,8.2,9.9
 2004/01/06, 3:30,12.4,46,8,10
 2004/01/06, 3:45,12.3,45,7.8,10.1
 2004/01/06, 4:00,12.1,45,7.9,10.1
 2004/01/06, 4:15,12,45,7.8,10.2
 2004/01/06, 4:30,12,45,7.8,10.3
 2004/01/06, 4:45,11.9,45,7.5,10.4
 2004/01/06, 5:00,11.7,45,7.5,10.4
 2004/01/06, 5:15,11.6,46,7.4,10.5
 2004/01/06, 5:30,11.6,46,7.4,10.5
 2004/01/06, 5:45,11.5,46,7.5,10.6
 2004/01/06, 6:00,11.4,46,7.5,10.3
 2004/01/06, 6:15,12,47,7.4,9.4
 2004/01/06, 6:30,15,46,7.7,9.4
 2004/01/06, 6:45,17.4,41,8,9.4
 2004/01/06, 7:00,18.1,40,8.1,9.5
 2004/01/06, 7:15,18.4,40,8.2,9.5
 2004/01/06, 7:30,18.7,38,8.4,9.6
 2004/01/06, 7:45,17.8,40,8.4,9.7
 2004/01/06, 8:00,17.5,41,8.7,9.7
 2004/01/06, 8:15,17.8,41,9.6,9.8
 2004/01/06, 8:30,18,40,9.3,9
 2004/01/06, 8:45,17.6,41,9.4,9.1
 2004/01/06, 9:00,16.9,42,9.6,9.3
 2004/01/06, 9:15,17,41,9.4,9.4
 2004/01/06, 9:30,17,40,9.1,9.6
 2004/01/06, 9:45,17.1,37,8.8,9.2
 2004/01/06,10:00,14.9,39,8.8,9.3
 2004/01/06,10:15,14,41,8.7,9.3
 2004/01/06,10:30,13.6,41,8.7,9.4
 2004/01/06,10:45,13.2,42,8.7,9.5
 2004/01/06,11:00,13.2,42,8.9,9.6
 2004/01/06,11:15,12.7,43,8.9,9.7
 2004/01/06,11:30,12.6,43,9,9.8
 2004/01/06,11:45,12.6,43,9,9.9
 2004/01/06,12:00,12.3,44,9.1,10
 2004/01/06,12:15,12.1,45,9,10.1
 2004/01/06,12:30,13.1,46,9.1,10.2
 2004/01/06,12:45,16.7,40,9,10.3
 2004/01/06,13:00,17.4,38,9,10.5
 2004/01/06,13:15,17.6,37,9,10.6
 2004/01/06,13:30,16.3,39,8.8,10.7
 2004/01/06,13:45,16.1,39,9,10.8
 2004/01/06,14:00,16.1,39,9.1,10.9
 2004/01/06,14:15,16.5,40,9.4,9.6
 2004/01/06,14:30,14.8,42,9.9,9.6
 2004/01/06,14:45,14.6,44,10.4,9.7
 2004/01/06,15:00,14.3,45,10.2,9.2
 2004/01/06,15:15,14.2,46,10.2,9.2
 2004/01/06,15:30,14,45,10.4,9.3
 2004/01/06,15:45,13.9,46,10.6,9.3
 2004/01/06,16:00,14,46,11.2,9.4
 2004/01/06,16:15,13.9,46,11.4,9.5
 2004/01/06,16:30,13.8,46,11.5,9.5
 2004/01/06,16:45,13.9,46,11.1,9.6
 2004/01/06,17:00,13.7,46,10.5,9.7
 2004/01/06,17:15,13.6,46,10.1,9.7
 2004/01/06,17:30,13.5,45,10.1,9.8
 2004/01/06,17:45,13.6,44,12.1,9.8
 2004/01/06,18:00,13.5,45,11.5,9.9
 2004/01/06,18:15,13.5,45,13.4,9.9
 2004/01/06,18:30,15,47,13.7,10
 2004/01/06,18:45,16.5,46,12.4,10.1
 2004/01/06,19:00,17.6,45,12,10.1
 2004/01/06,19:15,17.5,47,11.5,10.2
 2004/01/06,19:30,17.7,46,11.2,10.3
 2004/01/06,19:45,17.8,44,11,10.4
 2004/01/06,20:00,18,43,10.8,10.4
 2004/01/06,20:15,17.7,44,10.8,10.5
 2004/01/06,20:30,17.7,44,12.4,10.5
 2004/01/06,20:45,18.3,43,11.4,10.5
 2004/01/06,21:00,17.2,44,11.1,10.6
 2004/01/06,21:15,16.8,45,11,10.7
 2004/01/06,21:30,16.7,45,10.9,10.7
 2004/01/06,21:45,16.5,45,10.7,10.8
 2004/01/06,22:00,16.3,45,10.8,10.9
 2004/01/06,22:15,16.3,46,10.4,10.3
 2004/01/06,22:30,16.1,46,10.3,10.4
 2004/01/06,22:45,16,46,9.8,10.4
 2004/01/06,23:00,15.7,46,9.8,9.9
 2004/01/06,23:15,15,47,9.7,9.8
 2004/01/06,23:30,14.6,47,9.6,9.9
 2004/01/06,23:45,14.4,47,9.4,9.9
 2004/01/07, 0:00,14.2,46,9.3,10
 2004/01/07, 0:15,13.9,46,9.2,10.1
 2004/01/07, 0:30,13.7,46,9.1,10.2
 2004/01/07, 0:45,13.5,46,9,10.2
 2004/01/07, 1:00,13.4,47,9,10.3
 2004/01/07, 1:15,13.2,47,8.8,10.4
 2004/01/07, 1:30,13.1,46,8.8,10.4
 2004/01/07, 1:45,12.9,47,8.7,10.5
 2004/01/07, 2:00,12.8,46,8.7,10.6
 2004/01/07, 2:15,12.7,46,8.4,10.6
 2004/01/07, 2:30,12.6,46,8.2,10.7
 2004/01/07, 2:45,12.4,46,8.1,10.7
 2004/01/07, 3:00,12.4,46,7.9,10.8
 2004/01/07, 3:15,12.2,46,7.9,10.8
 2004/01/07, 3:30,12.2,46,7.8,10.9
 2004/01/07, 3:45,12,46,7.7,10.9
 2004/01/07, 4:00,11.9,46,7.5,10.9
 2004/01/07, 4:15,11.7,46,7.5,11
 2004/01/07, 4:30,11.6,46,7.3,11
 2004/01/07, 4:45,11.5,46,7.2,11
 2004/01/07, 5:00,11.5,47,7.2,11
 2004/01/07, 5:15,11.4,47,7.1,11.1
 2004/01/07, 5:30,11.3,47,7,11.1
 2004/01/07, 5:45,11.3,46,6.9,11.1
 2004/01/07, 6:00,11.2,46,6.7,11.1
 2004/01/07, 6:15,11.3,46,6.5,9.5
 2004/01/07, 6:30,12.7,48,7.2,9.5
 2004/01/07, 6:45,14.6,47,7.2,9.5
 2004/01/07, 7:00,15.6,45,7,9.6
 2004/01/07, 7:15,16.9,43,7.1,9.6
 2004/01/07, 7:30,17.2,42,7.2,9.7
 2004/01/07, 7:45,17.2,41,7.9,9.7
 2004/01/07, 8:00,17.6,41,7.8,9.7
 2004/01/07, 8:15,17.5,42,8.2,9.8
 2004/01/07, 8:30,17.7,41,9,9.8
 2004/01/07, 8:45,17.4,40,9.1,9.9
 2004/01/07, 9:00,17,34,8.3,9.9
 2004/01/07, 9:15,16.3,35,8.3,10
 2004/01/07, 9:30,16.3,34,8.5,10.1
 2004/01/07, 9:45,14.8,32,8.6,10.1
 2004/01/07,10:00,13.2,33,9.2,9.3
 2004/01/07,10:15,12.9,34,9.6,9.4
 2004/01/07,10:30,14.3,39,9.4,9.4
 2004/01/07,10:45,14.9,36,9.8,9.5
 2004/01/07,11:00,14.6,36,9.9,9.5
 2004/01/07,11:15,14.3,37,10.4,9.6
 2004/01/07,11:30,14.3,37,10.3,9.7
 2004/01/07,11:45,16.1,37,10.5,9.7
 2004/01/07,12:00,17,38,11.4,9.8
 2004/01/07,12:15,17.3,39,11.8,9.9
 2004/01/07,12:30,17.9,38,12.1,10
 2004/01/07,12:45,18,37,11.7,10.1
 2004/01/07,13:00,17.4,39,12,10.1
 2004/01/07,13:15,17,41,12.5,10.2
 2004/01/07,13:30,17,41,13.1,10.3
 2004/01/07,13:45,16.9,41,12.8,10.4
 2004/01/07,14:00,17.9,39,13.2,10.5
 2004/01/07,14:15,18.3,38,14,10.6
 2004/01/07,14:30,19.1,37,14.2,10.7
 2004/01/07,14:45,20.1,35,14.3,10.7
 2004/01/07,15:00,18.9,37,14.6,10.8
 2004/01/07,15:15,19.6,39,14.3,10.9
 2004/01/07,15:30,19.7,38,13.6,11
 2004/01/07,15:45,20.1,38,13.5,11.1
 2004/01/07,16:00,19.9,38,13.2,11.2
 2004/01/07,16:15,19.8,39,13.5,11.3
 2004/01/07,16:30,20,39,13.1,11.4
 2004/01/07,16:45,20.1,38,12.7,11.5
 2004/01/07,17:00,20.1,38,12.4,10.7
 2004/01/07,17:15,20.1,38,12.2,10.8
 2004/01/07,17:30,20.4,39,12.1,10.8
 2004/01/07,17:45,20.7,39,11.9,10.9
 2004/01/07,18:00,20.6,39,11.9,10.9
 2004/01/07,18:15,20.4,38,11.8,11
 2004/01/07,18:30,20.1,39,11.9,11.1
 2004/01/07,18:45,20.1,39,12.5,11.1
 2004/01/07,19:00,20.1,40,13.3,11.2
 2004/01/07,19:15,19.7,40,13.1,11.3
 2004/01/07,19:30,19.6,41,12.9,11.4
 2004/01/07,19:45,19.6,40,13.3,11.4
 2004/01/07,20:00,19.5,40,13.5,11.5
 2004/01/07,20:15,20.1,40,12.8,11.6
 2004/01/07,20:30,20,40,12.6,11.7
 2004/01/07,20:45,19.9,39,12.1,11.7
 2004/01/07,21:00,19.9,37,11.8,11.8
 2004/01/07,21:15,19.8,36,11.5,11.4
 2004/01/07,21:30,19.6,36,11.5,11.4
 2004/01/07,21:45,19.3,36,11.2,11.5
 2004/01/07,22:00,19.2,36,11.2,11.5
 2004/01/07,22:15,19,36,12.6,11.6